HKE790 VHHH-WBKK

Flight info

Callsign HKE790
Flight time 2h 34m
Altitude 36000
Route DALOL V652 SABNO/N0457F370 A583 AKOTA/N0460F360 M754 VINIK M522 ENBAX ENBAX1C
Aircraft A320/M-SDE3FGHIRWY/LB1

Departure

Time 2026-04-23 15:35
Airport Hong Kong International Airport (VHHH)

Arrival

Time 2026-04-23 18:10
Airport Kota Kinabalu International Airport (WBKK)
Time Latitude Longitude Altitude Speed Heading
2026-04-23 15:01 22.30737 113.91774 32 ft 0 kts 71°
2026-04-23 15:23 22.30735 113.91767 32 ft 4 kts 71°
2026-04-23 15:23 22.30726 113.91739 31 ft 4 kts 71°
2026-04-23 15:23 22.30719 113.91717 31 ft 3 kts 71°
2026-04-23 15:23 22.30714 113.91691 31 ft 4 kts 105°
2026-04-23 15:24 22.30727 113.91675 30 ft 3 kts 161°
2026-04-23 15:24 22.30746 113.91668 31 ft 0 kts 161°
2026-04-23 15:28 22.30736 113.91672 29 ft 5 kts 161°
2026-04-23 15:28 22.30663 113.91698 32 ft 16 kts 161°
2026-04-23 15:29 22.30544 113.91732 32 ft 18 kts 192°
2026-04-23 15:29 22.30488 113.91630 32 ft 19 kts 251°
2026-04-23 15:29 22.30441 113.91482 32 ft 22 kts 251°
2026-04-23 15:29 22.30383 113.91304 32 ft 29 kts 251°
2026-04-23 15:30 22.30315 113.91093 32 ft 31 kts 251°
2026-04-23 15:30 22.30245 113.90874 32 ft 31 kts 251°
2026-04-23 15:30 22.30173 113.90652 30 ft 32 kts 251°
2026-04-23 15:30 22.30108 113.90452 32 ft 24 kts 249°
2026-04-23 15:31 22.30054 113.90284 32 ft 23 kts 250°
2026-04-23 15:31 22.30011 113.90154 31 ft 15 kts 251°
2026-04-23 15:31 22.29975 113.90040 32 ft 16 kts 251°
2026-04-23 15:31 22.29938 113.89923 32 ft 17 kts 251°
2026-04-23 15:32 22.29898 113.89800 31 ft 17 kts 250°
2026-04-23 15:32 22.29869 113.89741 32 ft 8 kts 219°
2026-04-23 15:32 22.29812 113.89740 32 ft 9 kts 162°
2026-04-23 15:32 22.29750 113.89762 32 ft 8 kts 161°
2026-04-23 15:33 22.29728 113.89770 32 ft 0 kts 161°
2026-04-23 15:33 22.29727 113.89771 32 ft 2 kts 161°
2026-04-23 15:33 22.29653 113.89822 30 ft 22 kts 122°
2026-04-23 15:34 22.29669 113.89956 30 ft 11 kts 72°
2026-04-23 15:34 22.29673 113.89967 30 ft 0 kts 71°
2026-04-23 15:34 22.29677 113.89980 29 ft 12 kts 71°
2026-04-23 15:35 22.29786 113.90317 30 ft 81 kts 71°
2026-04-23 15:35 22.30032 113.91078 32 ft 131 kts 71°
2026-04-23 15:35 22.30367 113.92147 144 ft 160 kts 67°
2026-04-23 15:35 22.30721 113.93264 803 ft 156 kts 68°
2026-04-23 15:36 22.31078 113.94372 1435 ft 156 kts 67°
2026-04-23 15:36 22.31443 113.95493 1876 ft 166 kts 68°
2026-04-23 15:36 22.31852 113.96743 2115 ft 188 kts 68°
2026-04-23 15:36 22.32312 113.98153 2330 ft 210 kts 68°
2026-04-23 15:37 22.32820 113.99719 2543 ft 233 kts 69°
2026-04-23 15:37 22.33381 114.01453 2888 ft 256 kts 70°
2026-04-23 15:37 22.33830 114.03391 3362 ft 275 kts 89°
2026-04-23 15:37 22.33522 114.05426 4137 ft 278 kts 114°
2026-04-23 15:38 22.32458 114.07152 4912 ft 278 kts 141°
2026-04-23 15:38 22.30853 114.08278 5687 ft 275 kts 162°
2026-04-23 15:38 22.29001 114.08733 6453 ft 273 kts 181°
2026-04-23 15:38 22.27098 114.08723 7181 ft 275 kts 184°
2026-04-23 15:39 22.25170 114.08696 7931 ft 278 kts 185°
2026-04-23 15:39 22.23246 114.08672 8672 ft 281 kts 185°
2026-04-23 15:39 22.21253 114.08647 9419 ft 284 kts 185°
2026-04-23 15:39 22.19285 114.08683 10095 ft 291 kts 177°
2026-04-23 15:40 22.17251 114.09351 10377 ft 319 kts 154°
2026-04-23 15:40 22.15551 114.11037 10511 ft 349 kts 128°
2026-04-23 15:40 22.14224 114.13280 10711 ft 367 kts 124°
2026-04-23 15:40 22.12903 114.15670 11196 ft 374 kts 123°
2026-04-23 15:41 22.11587 114.18105 11765 ft 378 kts 123°
2026-04-23 15:41 22.10259 114.20563 12318 ft 381 kts 123°
2026-04-23 15:41 22.08909 114.23038 12898 ft 384 kts 124°
2026-04-23 15:41 22.07536 114.25525 13472 ft 387 kts 124°
2026-04-23 15:42 22.06143 114.28026 13999 ft 391 kts 124°
2026-04-23 15:42 22.04734 114.30542 14471 ft 394 kts 124°
2026-04-23 15:42 22.03310 114.33082 14942 ft 398 kts 124°
2026-04-23 15:42 22.01873 114.35641 15415 ft 401 kts 124°
2026-04-23 15:43 22.00422 114.38225 15879 ft 404 kts 124°
2026-04-23 15:43 21.98964 114.40827 16353 ft 407 kts 124°
2026-04-23 15:43 21.97502 114.43441 16826 ft 410 kts 124°
2026-04-23 15:43 21.96020 114.46083 17282 ft 414 kts 124°
2026-04-23 15:44 21.94525 114.48743 17749 ft 417 kts 125°
2026-04-23 15:44 21.93016 114.51426 18202 ft 420 kts 125°
2026-04-23 15:44 21.91497 114.54131 18599 ft 424 kts 125°
2026-04-23 15:44 21.89967 114.56856 18982 ft 427 kts 124°
2026-04-23 15:45 21.88425 114.59601 19372 ft 430 kts 124°
2026-04-23 15:45 21.86872 114.62366 19768 ft 433 kts 124°
2026-04-23 15:45 21.85378 114.65030 20146 ft 436 kts 124°
2026-04-23 15:45 21.83806 114.67835 20537 ft 439 kts 124°
2026-04-23 15:46 21.82219 114.70657 20907 ft 442 kts 124°
2026-04-23 15:46 21.80619 114.73495 21283 ft 445 kts 124°
2026-04-23 15:46 21.79007 114.76350 21643 ft 448 kts 124°
2026-04-23 15:46 21.77402 114.79192 21996 ft 451 kts 124°
2026-04-23 15:47 21.75752 114.82113 22352 ft 453 kts 125°
2026-04-23 15:47 21.74091 114.84951 22696 ft 454 kts 129°
2026-04-23 15:47 21.72193 114.87664 23036 ft 455 kts 131°
2026-04-23 15:47 21.70268 114.90380 23378 ft 458 kts 131°
2026-04-23 15:48 21.68328 114.93112 23674 ft 461 kts 131°
2026-04-23 15:48 21.66381 114.95853 23959 ft 463 kts 131°
2026-04-23 15:48 21.64425 114.98610 24252 ft 465 kts 131°
2026-04-23 15:48 21.62463 115.01377 24544 ft 466 kts 131°
2026-04-23 15:49 21.60498 115.04152 24836 ft 468 kts 131°
2026-04-23 15:49 21.58525 115.06937 25128 ft 469 kts 131°
2026-04-23 15:49 21.56542 115.09730 25413 ft 471 kts 131°
2026-04-23 15:49 21.54522 115.12508 25693 ft 471 kts 135°
2026-04-23 15:50 21.52219 115.14984 25962 ft 467 kts 144°
2026-04-23 15:50 21.49625 115.17063 26228 ft 465 kts 150°
2026-04-23 15:50 21.46946 115.19026 26499 ft 467 kts 150°
2026-04-23 15:50 21.44244 115.20930 26763 ft 465 kts 156°
2026-04-23 15:51 21.41262 115.22229 27024 ft 458 kts 170°
2026-04-23 15:51 21.38165 115.23054 27265 ft 459 kts 171°
2026-04-23 15:51 21.35060 115.23863 27554 ft 460 kts 171°
2026-04-23 15:51 21.31942 115.24670 27829 ft 462 kts 171°
2026-04-23 15:52 21.28811 115.25480 28127 ft 463 kts 171°
2026-04-23 15:52 21.25689 115.26290 28543 ft 461 kts 171°
2026-04-23 15:52 21.22579 115.27103 28969 ft 460 kts 171°
2026-04-23 15:52 21.19477 115.27916 29383 ft 458 kts 171°
2026-04-23 15:53 21.16379 115.28724 29810 ft 457 kts 172°
2026-04-23 15:53 21.13292 115.29525 30196 ft 456 kts 172°
2026-04-23 15:53 21.10213 115.30320 30558 ft 455 kts 172°
2026-04-23 15:53 21.07136 115.31116 30899 ft 454 kts 172°
2026-04-23 15:54 21.04070 115.31910 31259 ft 453 kts 171°
2026-04-23 15:54 21.01013 115.32704 31620 ft 452 kts 171°
2026-04-23 15:54 20.97957 115.33495 31975 ft 452 kts 171°
2026-04-23 15:54 20.94899 115.34286 32291 ft 452 kts 171°
2026-04-23 15:55 20.91880 115.35064 32623 ft 452 kts 171°
2026-04-23 15:55 20.88818 115.35855 32969 ft 452 kts 171°
2026-04-23 15:55 20.85760 115.36647 33323 ft 452 kts 171°
2026-04-23 15:55 20.82704 115.37442 33674 ft 452 kts 171°
2026-04-23 15:56 20.79646 115.38236 34008 ft 452 kts 171°
2026-04-23 15:56 20.76593 115.39028 34291 ft 451 kts 171°
2026-04-23 15:56 20.73544 115.39817 34597 ft 450 kts 171°
2026-04-23 15:56 20.70502 115.40603 34910 ft 449 kts 171°
2026-04-23 15:57 20.67467 115.41386 35224 ft 448 kts 171°
2026-04-23 15:57 20.64439 115.42166 35532 ft 447 kts 171°
2026-04-23 15:57 20.61419 115.42940 35836 ft 446 kts 171°
2026-04-23 15:57 20.58410 115.43714 36133 ft 445 kts 171°
2026-04-23 15:58 20.55406 115.44489 36425 ft 444 kts 171°
2026-04-23 15:58 20.52410 115.45263 36725 ft 442 kts 171°
2026-04-23 15:58 20.49418 115.46036 36902 ft 443 kts 171°
2026-04-23 15:59 20.43358 115.47588 36930 ft 453 kts 170°
2026-04-23 15:59 20.37196 115.49173 36929 ft 457 kts 170°
2026-04-23 16:00 20.31006 115.50766 36930 ft 458 kts 170°
2026-04-23 16:00 20.24818 115.52354 36934 ft 458 kts 170°
2026-04-23 16:01 20.18624 115.53945 36937 ft 458 kts 170°
2026-04-23 16:01 20.12427 115.55532 36939 ft 458 kts 170°
2026-04-23 16:02 20.06225 115.57114 36941 ft 459 kts 170°
2026-04-23 16:02 20.00019 115.58705 36943 ft 459 kts 170°
2026-04-23 16:03 19.93813 115.60297 36945 ft 459 kts 170°
2026-04-23 16:03 19.87602 115.61881 36948 ft 459 kts 170°
2026-04-23 16:04 19.81432 115.63452 36936 ft 459 kts 170°
2026-04-23 16:04 19.75221 115.65037 36947 ft 459 kts 170°
2026-04-23 16:05 19.70019 115.66359 36945 ft 459 kts 170°
2026-04-23 16:05 19.62810 115.68196 36948 ft 458 kts 170°
2026-04-23 16:06 19.56603 115.69770 36951 ft 458 kts 170°
2026-04-23 16:06 19.50403 115.71347 36942 ft 458 kts 170°
2026-04-23 16:07 19.44203 115.72923 36949 ft 458 kts 170°
2026-04-23 16:07 19.38006 115.74494 36950 ft 458 kts 170°
2026-04-23 16:08 19.31813 115.76075 36946 ft 458 kts 170°
2026-04-23 16:08 19.25620 115.77646 36945 ft 458 kts 170°
2026-04-23 16:09 19.19434 115.79210 36936 ft 457 kts 170°
2026-04-23 16:09 19.13252 115.80769 36945 ft 457 kts 169°
2026-04-23 16:10 19.07115 115.82322 36948 ft 456 kts 169°
2026-04-23 16:10 19.00904 115.83894 36948 ft 456 kts 169°
2026-04-23 16:11 18.95000 115.86411 36946 ft 461 kts 155°
2026-04-23 16:11 18.89347 115.89524 36946 ft 461 kts 155°
2026-04-23 16:12 18.83614 115.92668 36938 ft 461 kts 155°
2026-04-23 16:12 18.77913 115.95783 36939 ft 461 kts 155°
2026-04-23 16:13 18.72248 115.98876 36939 ft 462 kts 155°
2026-04-23 16:13 18.63689 116.03550 36943 ft 462 kts 155°
2026-04-23 16:14 18.57983 116.06670 36942 ft 462 kts 155°
2026-04-23 16:14 18.52268 116.09785 36938 ft 463 kts 155°
2026-04-23 16:15 18.46548 116.12899 36945 ft 463 kts 155°
2026-04-23 16:15 18.40828 116.16017 36946 ft 463 kts 155°
2026-04-23 16:16 18.36032 116.18627 36947 ft 463 kts 155°
2026-04-23 16:16 18.30308 116.21737 36948 ft 463 kts 155°
2026-04-23 16:17 18.24588 116.24851 36944 ft 463 kts 155°
2026-04-23 16:17 18.18907 116.27933 36939 ft 463 kts 154°
2026-04-23 16:18 18.13185 116.31035 36940 ft 463 kts 154°
2026-04-23 16:18 18.07465 116.34138 36940 ft 463 kts 154°
2026-04-23 16:19 18.01741 116.37235 36938 ft 463 kts 154°
2026-04-23 16:19 17.96023 116.40338 36937 ft 463 kts 154°
2026-04-23 16:20 17.90304 116.43438 36936 ft 463 kts 154°
2026-04-23 16:20 17.84581 116.46524 36934 ft 462 kts 154°
2026-04-23 16:21 17.78860 116.49610 36932 ft 462 kts 154°
2026-04-23 16:21 17.73144 116.52694 36936 ft 462 kts 154°
2026-04-23 16:22 17.67433 116.55785 36933 ft 462 kts 154°
2026-04-23 16:22 17.61720 116.58862 36933 ft 462 kts 154°
2026-04-23 16:23 17.56004 116.61940 36937 ft 462 kts 154°
2026-04-23 16:23 17.50292 116.65016 36934 ft 462 kts 154°
2026-04-23 16:24 17.44581 116.68098 36939 ft 462 kts 154°
2026-04-23 16:24 17.38868 116.71167 36940 ft 461 kts 154°
2026-04-23 16:25 17.33154 116.74229 36941 ft 462 kts 154°
2026-04-23 16:25 17.27434 116.77292 36942 ft 462 kts 154°
2026-04-23 16:26 17.21722 116.80367 36940 ft 462 kts 154°
2026-04-23 16:26 17.16006 116.83433 36937 ft 462 kts 153°
2026-04-23 16:27 17.10291 116.86494 36943 ft 461 kts 153°
2026-04-23 16:27 17.04615 116.89531 36946 ft 461 kts 153°
2026-04-23 16:28 16.98907 116.92584 36943 ft 461 kts 153°
2026-04-23 16:28 16.93197 116.95636 36943 ft 461 kts 153°
2026-04-23 16:29 16.87489 116.98683 36946 ft 461 kts 153°
2026-04-23 16:29 16.81778 117.01727 36946 ft 461 kts 153°
2026-04-23 16:30 16.76070 117.04770 36945 ft 461 kts 153°
2026-04-23 16:30 16.70360 117.07815 36945 ft 461 kts 153°
2026-04-23 16:31 16.64651 117.10857 36943 ft 461 kts 153°
2026-04-23 16:31 16.58939 117.13898 36943 ft 461 kts 153°
2026-04-23 16:32 16.53229 117.16935 36943 ft 461 kts 153°
2026-04-23 16:32 16.47337 117.19496 36948 ft 459 kts 167°
2026-04-23 16:33 16.41009 117.20001 36944 ft 457 kts 186°
2026-04-23 16:33 16.34696 117.19186 36939 ft 457 kts 187°
2026-04-23 16:34 16.28379 117.18381 36937 ft 457 kts 187°
2026-04-23 16:34 16.22060 117.17570 36938 ft 458 kts 187°
2026-04-23 16:35 16.15783 117.16757 36930 ft 458 kts 187°
2026-04-23 16:35 16.09454 117.15946 36927 ft 458 kts 187°
2026-04-23 16:36 16.03119 117.15130 36929 ft 459 kts 187°
2026-04-23 16:36 15.96782 117.14308 36930 ft 459 kts 187°
2026-04-23 16:37 15.90440 117.13498 36928 ft 459 kts 187°
2026-04-23 16:37 15.84098 117.12688 36930 ft 459 kts 187°
2026-04-23 16:38 15.77753 117.11868 36932 ft 460 kts 187°
2026-04-23 16:38 15.71407 117.11047 36932 ft 460 kts 187°
2026-04-23 16:39 15.65057 117.10235 36930 ft 460 kts 187°
2026-04-23 16:39 15.58702 117.09425 36932 ft 460 kts 187°
2026-04-23 16:40 15.52351 117.08617 36934 ft 460 kts 187°
2026-04-23 16:40 15.46000 117.07799 36935 ft 460 kts 187°
2026-04-23 16:41 15.39647 117.06989 36928 ft 460 kts 187°
2026-04-23 16:41 15.33293 117.06175 36926 ft 460 kts 187°
2026-04-23 16:42 15.26940 117.05362 36932 ft 460 kts 186°
2026-04-23 16:42 15.20585 117.04553 36932 ft 460 kts 186°
2026-04-23 16:43 15.14236 117.03743 36930 ft 460 kts 186°
2026-04-23 16:43 15.07925 117.02936 36931 ft 460 kts 186°
2026-04-23 16:44 15.01576 117.02124 36929 ft 460 kts 186°
2026-04-23 16:44 14.95226 117.01318 36928 ft 460 kts 186°
2026-04-23 16:45 14.88873 117.00508 36929 ft 460 kts 186°
2026-04-23 16:45 14.82526 116.99697 36928 ft 460 kts 186°
2026-04-23 16:46 14.76177 116.98893 36923 ft 460 kts 186°
2026-04-23 16:46 14.69827 116.98092 36924 ft 460 kts 186°
2026-04-23 16:47 14.63479 116.97288 36924 ft 460 kts 186°
2026-04-23 16:47 14.57132 116.96476 36927 ft 459 kts 187°
2026-04-23 16:48 14.50791 116.95670 36923 ft 459 kts 186°
2026-04-23 16:48 14.44447 116.94866 36923 ft 459 kts 187°
2026-04-23 16:49 14.38104 116.94060 36923 ft 459 kts 186°
2026-04-23 16:49 14.31764 116.93257 36924 ft 459 kts 186°
2026-04-23 16:50 14.25424 116.92457 36925 ft 459 kts 187°
2026-04-23 16:50 14.19087 116.91662 36924 ft 459 kts 187°
2026-04-23 16:51 14.12752 116.90866 36920 ft 459 kts 186°
2026-04-23 16:51 14.06461 116.90079 36920 ft 458 kts 186°
2026-04-23 16:52 14.00133 116.89281 36918 ft 458 kts 187°
2026-04-23 16:52 13.93804 116.88470 36921 ft 458 kts 187°
2026-04-23 16:53 13.87484 116.87668 36920 ft 458 kts 187°
2026-04-23 16:53 13.81160 116.86878 36919 ft 458 kts 187°
2026-04-23 16:54 13.74839 116.86091 36916 ft 458 kts 186°
2026-04-23 16:54 13.68513 116.85291 36916 ft 458 kts 187°
2026-04-23 16:55 13.62187 116.84485 36913 ft 458 kts 187°
2026-04-23 16:55 13.55859 116.83688 36912 ft 458 kts 187°
2026-04-23 16:56 13.49534 116.82895 36916 ft 458 kts 186°
2026-04-23 16:56 13.43203 116.82103 36915 ft 458 kts 186°
2026-04-23 16:57 13.36873 116.81307 36919 ft 458 kts 187°
2026-04-23 16:57 13.30546 116.80515 36924 ft 458 kts 187°
2026-04-23 16:58 13.24223 116.79727 36920 ft 458 kts 187°
2026-04-23 16:58 13.17904 116.78926 36922 ft 457 kts 187°
2026-04-23 16:59 13.11588 116.78137 36920 ft 457 kts 187°
2026-04-23 16:59 13.05274 116.77344 36917 ft 457 kts 187°
2026-04-23 17:00 12.98959 116.76548 36925 ft 457 kts 187°
2026-04-23 17:00 12.92653 116.75765 36926 ft 456 kts 187°
2026-04-23 17:01 12.86351 116.74991 36922 ft 456 kts 187°
2026-04-23 17:01 12.80051 116.74205 36917 ft 456 kts 187°
2026-04-23 17:02 12.73753 116.73405 36916 ft 456 kts 188°
2026-04-23 17:02 12.67457 116.72619 36919 ft 456 kts 187°
2026-04-23 17:03 12.62226 116.71973 36919 ft 455 kts 188°
2026-04-23 17:03 12.55936 116.71192 36919 ft 455 kts 188°
2026-04-23 17:04 12.49645 116.70405 36921 ft 455 kts 188°
2026-04-23 17:04 12.43355 116.69625 36917 ft 455 kts 188°
2026-04-23 17:05 12.37069 116.68836 36918 ft 455 kts 188°
2026-04-23 17:05 12.30786 116.68052 36918 ft 455 kts 188°
2026-04-23 17:06 12.24507 116.67268 36921 ft 454 kts 188°
2026-04-23 17:06 12.18232 116.66489 36917 ft 454 kts 188°
2026-04-23 17:07 12.11962 116.65704 36914 ft 454 kts 188°
2026-04-23 17:07 12.05691 116.64926 36915 ft 454 kts 188°
2026-04-23 17:08 11.99425 116.64157 36916 ft 453 kts 188°
2026-04-23 17:08 11.93160 116.63385 36917 ft 453 kts 188°
2026-04-23 17:09 11.86896 116.62607 36915 ft 453 kts 188°
2026-04-23 17:09 11.80634 116.61826 36915 ft 453 kts 188°
2026-04-23 17:10 11.74373 116.61040 36915 ft 453 kts 189°
2026-04-23 17:10 11.68123 116.60268 36914 ft 452 kts 188°
2026-04-23 17:11 11.61874 116.59508 36913 ft 452 kts 189°
2026-04-23 17:11 11.55631 116.58732 36913 ft 452 kts 189°
2026-04-23 17:12 11.49385 116.57958 36913 ft 452 kts 189°
2026-04-23 17:12 11.43187 116.57190 36914 ft 452 kts 189°
2026-04-23 17:13 11.36952 116.56420 36916 ft 451 kts 189°
2026-04-23 17:13 11.30725 116.55654 36908 ft 451 kts 189°
2026-04-23 17:14 11.24502 116.54881 36907 ft 450 kts 189°
2026-04-23 17:14 11.18283 116.54105 36902 ft 450 kts 189°
2026-04-23 17:15 11.12069 116.53339 36903 ft 450 kts 189°
2026-04-23 17:15 11.05853 116.52576 36901 ft 450 kts 188°
2026-04-23 17:16 10.99641 116.51818 36895 ft 450 kts 189°
2026-04-23 17:16 10.93432 116.51049 36899 ft 450 kts 189°
2026-04-23 17:17 10.87216 116.50277 36894 ft 450 kts 189°
2026-04-23 17:17 10.81003 116.49517 36898 ft 450 kts 188°
2026-04-23 17:18 10.71849 116.48391 36894 ft 450 kts 189°
2026-04-23 17:19 10.65625 116.47622 36896 ft 451 kts 189°
2026-04-23 17:19 10.59393 116.46851 36899 ft 451 kts 188°
2026-04-23 17:20 10.53202 116.46092 36902 ft 451 kts 188°
2026-04-23 17:21 10.40729 116.44561 36901 ft 451 kts 188°
2026-04-23 17:21 10.31371 116.43415 36903 ft 451 kts 188°
2026-04-23 17:22 10.22013 116.42270 36903 ft 452 kts 188°
2026-04-23 17:23 10.12652 116.41128 36904 ft 452 kts 188°
2026-04-23 17:24 10.03294 116.39976 36904 ft 452 kts 188°
2026-04-23 17:24 9.93934 116.38832 36904 ft 452 kts 188°
2026-04-23 17:25 9.84576 116.37685 36903 ft 452 kts 188°
2026-04-23 17:26 9.72188 116.36168 36903 ft 452 kts 188°
2026-04-23 17:27 9.62824 116.35034 36902 ft 452 kts 188°
2026-04-23 17:27 9.56583 116.34268 36902 ft 452 kts 188°
2026-04-23 17:28 9.50345 116.33498 36902 ft 452 kts 188°
2026-04-23 17:28 9.44099 116.32731 36898 ft 452 kts 188°
2026-04-23 17:29 9.37852 116.31970 36898 ft 453 kts 188°
2026-04-23 17:30 9.29523 116.30969 36898 ft 453 kts 188°
2026-04-23 17:30 9.19082 116.29693 36899 ft 453 kts 188°
2026-04-23 17:31 9.12827 116.28929 36899 ft 453 kts 188°
2026-04-23 17:31 9.06572 116.28166 36900 ft 452 kts 188°
2026-04-23 17:32 9.00368 116.27407 36899 ft 452 kts 188°
2026-04-23 17:32 8.94124 116.26653 36898 ft 452 kts 188°
2026-04-23 17:33 8.87880 116.25893 36897 ft 452 kts 188°
2026-04-23 17:33 8.82099 116.25189 36893 ft 452 kts 188°
2026-04-23 17:34 8.75860 116.24431 36898 ft 451 kts 188°
2026-04-23 17:35 8.66527 116.23295 36896 ft 450 kts 188°
2026-04-23 17:35 8.57193 116.22365 36896 ft 449 kts 185°
2026-04-23 17:36 8.50953 116.21962 36896 ft 449 kts 185°
2026-04-23 17:36 8.44707 116.21534 36899 ft 450 kts 185°
2026-04-23 17:37 8.38469 116.21061 36897 ft 449 kts 186°
2026-04-23 17:38 8.29119 116.20333 36733 ft 450 kts 185°
2026-04-23 17:38 8.25996 116.20094 36388 ft 450 kts 185°
2026-04-23 17:38 8.22874 116.19858 35975 ft 450 kts 185°
2026-04-23 17:38 8.19753 116.19620 35570 ft 450 kts 185°
2026-04-23 17:39 8.16632 116.19382 35169 ft 449 kts 184°
2026-04-23 17:39 8.13879 116.19184 34823 ft 450 kts 184°
2026-04-23 17:39 8.10751 116.18962 34437 ft 452 kts 184°
2026-04-23 17:39 8.07653 116.18743 34060 ft 453 kts 184°
2026-04-23 17:40 8.04678 116.18532 33670 ft 453 kts 184°
2026-04-23 17:40 8.01554 116.18311 33242 ft 454 kts 184°
2026-04-23 17:40 7.98401 116.18089 32815 ft 454 kts 183°
2026-04-23 17:40 7.95235 116.17868 32392 ft 457 kts 184°
2026-04-23 17:41 7.92061 116.17648 31978 ft 459 kts 184°
2026-04-23 17:41 7.85657 116.17193 31168 ft 463 kts 184°
2026-04-23 17:41 7.82442 116.16960 30773 ft 463 kts 183°
2026-04-23 17:42 7.75994 116.16495 30005 ft 466 kts 182°
2026-04-23 17:42 7.72758 116.16263 29565 ft 467 kts 183°
2026-04-23 17:42 7.69514 116.16037 29119 ft 466 kts 183°
2026-04-23 17:43 7.66293 116.15814 28677 ft 463 kts 182°
2026-04-23 17:43 7.63085 116.15587 28243 ft 459 kts 182°
2026-04-23 17:43 7.59904 116.15360 27806 ft 457 kts 183°
2026-04-23 17:43 7.56744 116.15134 27385 ft 454 kts 183°
2026-04-23 17:44 7.53595 116.14908 26981 ft 452 kts 182°
2026-04-23 17:44 7.50465 116.14688 26576 ft 449 kts 182°
2026-04-23 17:44 7.44256 116.14254 25777 ft 445 kts 182°
2026-04-23 17:45 7.41175 116.14037 25385 ft 443 kts 182°
2026-04-23 17:45 7.35057 116.13593 24620 ft 439 kts 182°
2026-04-23 17:45 7.32023 116.13374 24243 ft 436 kts 182°
2026-04-23 17:46 7.25999 116.12946 23508 ft 431 kts 182°
2026-04-23 17:46 7.23015 116.12738 23082 ft 429 kts 182°
2026-04-23 17:46 7.20044 116.12530 22646 ft 426 kts 182°
2026-04-23 17:47 7.17137 116.12324 22221 ft 424 kts 182°
2026-04-23 17:47 7.14436 116.12132 21831 ft 421 kts 182°
2026-04-23 17:47 7.08634 116.11718 21004 ft 415 kts 182°
2026-04-23 17:48 7.05763 116.11511 20599 ft 412 kts 182°
2026-04-23 17:48 7.02909 116.11307 20196 ft 410 kts 182°
2026-04-23 17:48 7.00074 116.11108 19805 ft 407 kts 182°
2026-04-23 17:48 6.97255 116.10911 19546 ft 406 kts 182°
2026-04-23 17:49 6.94480 116.10717 19320 ft 404 kts 182°
2026-04-23 17:49 6.91644 116.10516 19091 ft 403 kts 182°
2026-04-23 17:49 6.88855 116.10315 18868 ft 401 kts 182°
2026-04-23 17:49 6.86116 116.10120 18622 ft 400 kts 182°
2026-04-23 17:50 6.83349 116.09926 18336 ft 398 kts 182°
2026-04-23 17:50 6.77846 116.09544 17704 ft 394 kts 182°
2026-04-23 17:50 6.75116 116.09354 17369 ft 392 kts 182°
2026-04-23 17:51 6.72400 116.09166 17044 ft 390 kts 182°
2026-04-23 17:51 6.70574 116.09058 16826 ft 388 kts 181°
2026-04-23 17:51 6.65241 116.08807 16196 ft 384 kts 181°
2026-04-23 17:52 6.61682 116.08655 15777 ft 381 kts 181°
2026-04-23 17:52 6.57291 116.08464 15267 ft 378 kts 181°
2026-04-23 17:52 6.54671 116.08346 14964 ft 376 kts 182°
2026-04-23 17:53 6.49483 116.08104 14368 ft 371 kts 181°
2026-04-23 17:53 6.46904 116.07981 14073 ft 371 kts 182°
2026-04-23 17:53 6.44328 116.07856 13781 ft 370 kts 182°
2026-04-23 17:54 6.41761 116.07730 13470 ft 368 kts 182°
2026-04-23 17:54 6.39211 116.07604 13141 ft 367 kts 182°
2026-04-23 17:54 6.34138 116.07361 12489 ft 363 kts 182°
2026-04-23 17:55 6.29120 116.07028 11854 ft 360 kts 189°
2026-04-23 17:55 6.26702 116.06397 11542 ft 359 kts 199°
2026-04-23 17:55 6.24708 116.05568 11272 ft 358 kts 202°
2026-04-23 17:56 6.22421 116.04585 10964 ft 357 kts 202°
2026-04-23 17:56 6.17874 116.02656 10357 ft 353 kts 202°
2026-04-23 17:56 6.15612 116.01701 10053 ft 352 kts 202°
2026-04-23 17:57 6.13362 116.00751 9753 ft 349 kts 202°
2026-04-23 17:57 6.11157 115.99815 9428 ft 340 kts 202°
2026-04-23 17:57 6.06887 115.98000 8773 ft 327 kts 202°
2026-04-23 17:58 6.04840 115.97132 8449 ft 321 kts 202°
2026-04-23 17:58 6.02796 115.96264 8140 ft 316 kts 202°
2026-04-23 17:58 6.00783 115.95410 7837 ft 311 kts 202°
2026-04-23 17:58 5.98804 115.94570 7550 ft 307 kts 202°
2026-04-23 17:59 5.96854 115.93742 7265 ft 302 kts 202°
2026-04-23 17:59 5.94933 115.92925 6985 ft 298 kts 202°
2026-04-23 17:59 5.93036 115.92121 6700 ft 294 kts 201°
2026-04-23 17:59 5.91164 115.91329 6431 ft 290 kts 201°
2026-04-23 18:00 5.89401 115.90584 6163 ft 287 kts 201°
2026-04-23 18:00 5.87616 115.89829 5872 ft 284 kts 201°
2026-04-23 18:00 5.85838 115.89076 5586 ft 281 kts 201°
2026-04-23 18:00 5.84042 115.88314 5295 ft 279 kts 201°
2026-04-23 18:01 5.82264 115.87559 5011 ft 276 kts 202°
2026-04-23 18:01 5.80503 115.86810 4730 ft 274 kts 201°
2026-04-23 18:01 5.78755 115.86066 4438 ft 272 kts 201°
2026-04-23 18:01 5.77023 115.85330 4170 ft 269 kts 201°
2026-04-23 18:02 5.75303 115.84619 4074 ft 263 kts 196°
2026-04-23 18:02 5.73561 115.84543 4018 ft 246 kts 161°
2026-04-23 18:02 5.72078 115.85323 3820 ft 238 kts 139°
2026-04-23 18:02 5.71071 115.86576 3757 ft 226 kts 116°
2026-04-23 18:03 5.70688 115.88029 3705 ft 214 kts 93°
2026-04-23 18:03 5.70783 115.89477 3658 ft 202 kts 86°
2026-04-23 18:03 5.70912 115.90865 3617 ft 198 kts 86°
2026-04-23 18:03 5.71037 115.92238 3571 ft 197 kts 86°
2026-04-23 18:04 5.71210 115.93602 3529 ft 198 kts 77°
2026-04-23 18:04 5.71713 115.94844 3506 ft 185 kts 61°
2026-04-23 18:04 5.72473 115.95821 3454 ft 172 kts 45°
2026-04-23 18:04 5.73418 115.96449 3403 ft 161 kts 29°
2026-04-23 18:05 5.74416 115.96931 3377 ft 158 kts 26°
2026-04-23 18:05 5.75423 115.97380 3279 ft 158 kts 26°
2026-04-23 18:05 5.76433 115.97815 3114 ft 157 kts 25°
2026-04-23 18:05 5.77424 115.98237 2949 ft 152 kts 25°
2026-04-23 18:06 5.78393 115.98648 2732 ft 150 kts 25°
2026-04-23 18:06 5.79350 115.99053 2555 ft 149 kts 24°
2026-04-23 18:06 5.80301 115.99454 2389 ft 148 kts 24°
2026-04-23 18:06 5.81251 115.99855 2223 ft 148 kts 24°
2026-04-23 18:07 5.82196 116.00254 1976 ft 147 kts 23°
2026-04-23 18:07 5.83139 116.00652 1785 ft 147 kts 23°
2026-04-23 18:07 5.84078 116.01049 1608 ft 146 kts 23°
2026-04-23 18:07 5.85015 116.01444 1401 ft 146 kts 23°
2026-04-23 18:08 5.85633 116.01705 1287 ft 145 kts 23°
2026-04-23 18:08 5.86878 116.02230 1037 ft 145 kts 23°
2026-04-23 18:08 5.87804 116.02621 866 ft 144 kts 23°
2026-04-23 18:08 5.88725 116.03010 697 ft 143 kts 23°
2026-04-23 18:09 5.89642 116.03397 517 ft 143 kts 24°
2026-04-23 18:09 5.90555 116.03782 327 ft 142 kts 24°
2026-04-23 18:09 5.91467 116.04161 149 ft 142 kts 24°
2026-04-23 18:09 5.92347 116.04537 31 ft 124 kts 22°
2026-04-23 18:10 5.92999 116.04812 29 ft 83 kts 22°
2026-04-23 18:10 5.93444 116.04998 29 ft 55 kts 22°
2026-04-23 18:10 5.93682 116.05107 29 ft 27 kts 43°
2026-04-23 18:10 5.93666 116.05230 29 ft 15 kts 142°
2026-04-23 18:11 5.93565 116.05237 29 ft 16 kts 204°
2026-04-23 18:11 5.93450 116.05189 29 ft 19 kts 202°
2026-04-23 18:11 5.93317 116.05133 29 ft 22 kts 203°
2026-04-23 18:11 5.93166 116.05070 29 ft 25 kts 203°
2026-04-23 18:12 5.92998 116.04999 29 ft 27 kts 203°
2026-04-23 18:12 5.92880 116.04962 29 ft 12 kts 166°
2026-04-23 18:12 5.92834 116.05034 29 ft 14 kts 132°
2026-04-23 18:12 5.92743 116.05019 29 ft 15 kts 203°
2026-04-23 18:13 5.92639 116.04975 29 ft 18 kts 203°
2026-04-23 18:13 5.92518 116.04923 29 ft 20 kts 203°
2026-04-23 18:13 5.92387 116.04868 29 ft 18 kts 202°
2026-04-23 18:13 5.92301 116.04869 29 ft 10 kts 159°
2026-04-23 18:14 5.92226 116.04899 29 ft 13 kts 158°
2026-04-23 18:14 5.92154 116.04934 29 ft 9 kts 130°
2026-04-23 18:14 5.92164 116.04987 29 ft 6 kts 67°
2026-04-23 18:14 5.92177 116.05020 29 ft 1 kts 68°
2026-04-23 18:15 5.92179 116.05027 29 ft 0 kts 68°